User: anonymous   Login
Location: Hope
(40.9110°N, 74.9680°W)
Time: 09:10:13
(UTC-04:00)
Language:

Envisat - Orbit

View from above orbital plane
View from above orbital plane
View from above satellite
View from above satellite

Ground track
Ground track

The orbit data is extracted from the following two-line orbital elements,

1 27386U 02009A   19141.22276729 -.00000013  00000-0  92777-5 0  9992
2 27386  98.1511 163.7022 0001326  88.7490  44.1623 14.37948808902106
Epoch (UTC): 21 May 2019 05:20:47
Eccentricity: 0.0001326
inclination: 98.1511°
perigee height: 764 km
apogee height: 766 km
right ascension of ascending node: 163.7022°
argument of perigee: 88.7490°
revolutions per day: 14.37948808
mean anomaly at epoch: 44.1623°
orbit number at epoch: 90210

The dashed part of the orbit path shows where the satellite is in the earth's shadow,  

DLR